Year,Month,Day,Hour,Minute,Value (Times are PST for temperature in C)
2011,09,20,00,00,10.30
2011,09,20,00,01,10.30
2011,09,20,00,02,10.30
2011,09,20,00,03,10.20
2011,09,20,00,04,10.20
2011,09,20,00,05,10.20
2011,09,20,00,06,10.20
2011,09,20,00,07,10.20
2011,09,20,00,08,10.20
2011,09,20,00,09,10.20
2011,09,20,00,10,10.20
2011,09,20,00,11,10.20
2011,09,20,00,12,10.20
2011,09,20,00,13,10.10
2011,09,20,00,14,10.10
2011,09,20,00,15,10.10
2011,09,20,00,16,10.10
2011,09,20,00,17,10.10
2011,09,20,00,18,10.10
2011,09,20,00,19,10.10
2011,09,20,00,20,10.10
2011,09,20,00,21,10.10
2011,09,20,00,22,10.10
2011,09,20,00,23,10.10
2011,09,20,00,24,10.10
2011,09,20,00,25,10.10
2011,09,20,00,26,10.10
2011,09,20,00,27,10.10
2011,09,20,00,28,10.10
2011,09,20,00,29,10.10
2011,09,20,00,30,10.10
2011,09,20,00,31,10.10
2011,09,20,00,32,10.10
2011,09,20,00,33,10.10
2011,09,20,00,34,10.10
2011,09,20,00,35,10.10
2011,09,20,00,36,10.10
2011,09,20,00,37,10.10
2011,09,20,00,38,10.10
2011,09,20,00,39,10.10
2011,09,20,00,40,10.00
2011,09,20,00,41,10.00
2011,09,20,00,42,10.00
2011,09,20,00,43,10.00
2011,09,20,00,44,10.00
2011,09,20,00,45,10.00
2011,09,20,00,46,9.90
2011,09,20,00,47,9.90
2011,09,20,00,48,9.90
2011,09,20,00,49,9.90
2011,09,20,00,50,9.90
2011,09,20,00,51,9.90
2011,09,20,00,52,9.90
2011,09,20,00,53,9.90
2011,09,20,00,54,9.90
2011,09,20,00,55,9.90
2011,09,20,00,56,9.90
2011,09,20,00,57,9.90
2011,09,20,00,58,9.90
2011,09,20,00,59,9.90
2011,09,20,01,00,9.90
2011,09,20,01,01,9.90
2011,09,20,01,02,9.90
2011,09,20,01,03,9.90
2011,09,20,01,04,9.90
2011,09,20,01,05,9.90
2011,09,20,01,06,9.80
2011,09,20,01,07,9.80
2011,09,20,01,08,9.80
2011,09,20,01,09,9.80
2011,09,20,01,10,9.80
2011,09,20,01,11,9.80
2011,09,20,01,12,9.80
2011,09,20,01,13,9.80
2011,09,20,01,14,9.80
2011,09,20,01,15,9.70
2011,09,20,01,16,9.70
2011,09,20,01,17,9.70
2011,09,20,01,18,9.70
2011,09,20,01,19,9.70
2011,09,20,01,20,9.70
2011,09,20,01,21,9.70
2011,09,20,01,22,9.70
2011,09,20,01,23,9.70
2011,09,20,01,24,9.60
2011,09,20,01,25,9.60
2011,09,20,01,26,9.60
2011,09,20,01,27,9.60
2011,09,20,01,28,9.60
2011,09,20,01,29,9.60
2011,09,20,01,30,9.60
2011,09,20,01,31,9.60
2011,09,20,01,32,9.60
2011,09,20,01,33,9.50
2011,09,20,01,34,9.50
2011,09,20,01,35,9.50
2011,09,20,01,36,9.50
2011,09,20,01,37,9.50
2011,09,20,01,38,9.40
2011,09,20,01,39,9.40
2011,09,20,01,40,9.40
2011,09,20,01,41,9.40
2011,09,20,01,42,9.40
2011,09,20,01,43,9.30
2011,09,20,01,44,9.30
2011,09,20,01,45,9.30
2011,09,20,01,46,9.30
2011,09,20,01,47,9.30
2011,09,20,01,48,9.30
2011,09,20,01,49,9.30
2011,09,20,01,50,9.30
2011,09,20,01,51,9.20
2011,09,20,01,52,9.20
2011,09,20,01,53,9.20
2011,09,20,01,54,9.20
2011,09,20,01,55,9.20
2011,09,20,01,56,9.20
2011,09,20,01,57,9.20
2011,09,20,01,58,9.20
2011,09,20,01,59,9.20
2011,09,20,02,00,9.20
2011,09,20,02,01,9.20
2011,09,20,02,02,9.20
2011,09,20,02,03,9.10
2011,09,20,02,04,9.10
2011,09,20,02,05,9.10
2011,09,20,02,06,9.10
2011,09,20,02,07,9.10
2011,09,20,02,08,9.10
2011,09,20,02,09,9.10
2011,09,20,02,10,9.10
2011,09,20,02,11,9.10
2011,09,20,02,12,9.10
2011,09,20,02,13,9.10
2011,09,20,02,14,9.10
2011,09,20,02,15,9.10
2011,09,20,02,16,9.10
2011,09,20,02,17,9.10
2011,09,20,02,18,9.10
2011,09,20,02,19,9.10
2011,09,20,02,20,9.10
2011,09,20,02,21,9.10
2011,09,20,02,22,9.10
2011,09,20,02,23,9.10
2011,09,20,02,24,9.10
2011,09,20,02,25,9.10
2011,09,20,02,26,9.10
2011,09,20,02,27,9.10
2011,09,20,02,28,9.10
2011,09,20,02,29,9.10
2011,09,20,02,30,9.00
2011,09,20,02,31,9.00
2011,09,20,02,32,9.00
2011,09,20,02,33,9.00
2011,09,20,02,34,9.00
2011,09,20,02,35,9.00
2011,09,20,02,36,9.00
2011,09,20,02,37,8.90
2011,09,20,02,38,8.90
2011,09,20,02,39,8.90
2011,09,20,02,40,8.90
2011,09,20,02,41,8.90
2011,09,20,02,42,8.90
2011,09,20,02,43,8.90
2011,09,20,02,44,8.90
2011,09,20,02,45,8.90
2011,09,20,02,46,8.90
2011,09,20,02,47,8.90
2011,09,20,02,48,8.90
2011,09,20,02,49,8.90
2011,09,20,02,50,8.90
2011,09,20,02,51,8.80
2011,09,20,02,52,8.80
2011,09,20,02,53,8.80
2011,09,20,02,54,8.80
2011,09,20,02,55,8.80
2011,09,20,02,56,8.80
2011,09,20,02,57,8.80
2011,09,20,02,58,8.80
2011,09,20,02,59,8.80
2011,09,20,03,00,8.80
2011,09,20,03,01,8.80
2011,09,20,03,06,8.80
2011,09,20,03,07,8.80
2011,09,20,03,08,8.80
2011,09,20,03,09,8.70
2011,09,20,03,10,8.70
2011,09,20,03,11,8.70
2011,09,20,03,12,8.70
2011,09,20,03,13,8.70
2011,09,20,03,14,8.70
2011,09,20,03,15,8.70
2011,09,20,03,16,8.60
2011,09,20,03,17,8.60
2011,09,20,03,18,8.60
2011,09,20,03,19,8.60
2011,09,20,03,20,8.60
2011,09,20,03,21,8.60
2011,09,20,03,22,8.60
2011,09,20,03,23,8.60
2011,09,20,03,24,8.60
2011,09,20,03,25,8.50
2011,09,20,03,26,8.50
2011,09,20,03,27,8.50
2011,09,20,03,28,8.50
2011,09,20,03,29,8.50
2011,09,20,03,30,8.50
2011,09,20,03,31,8.50
2011,09,20,03,32,8.40
2011,09,20,03,33,8.40
2011,09,20,03,34,8.40
2011,09,20,03,35,8.40
2011,09,20,03,36,8.40
2011,09,20,03,37,8.40
2011,09,20,03,38,8.40
2011,09,20,03,39,8.40
2011,09,20,03,40,8.40
2011,09,20,03,41,8.40
2011,09,20,03,42,8.40
2011,09,20,03,43,8.40
2011,09,20,03,44,8.40
2011,09,20,03,45,8.40
2011,09,20,03,46,8.40
2011,09,20,03,47,8.40
2011,09,20,03,48,8.40
2011,09,20,03,49,8.40
2011,09,20,03,50,8.40
2011,09,20,03,51,8.40
2011,09,20,03,52,8.40
2011,09,20,03,53,8.40
2011,09,20,03,54,8.40
2011,09,20,03,55,8.40
2011,09,20,03,56,8.40
2011,09,20,03,57,8.40
2011,09,20,03,58,8.30
2011,09,20,03,59,8.30
2011,09,20,04,00,8.30
2011,09,20,04,01,8.30
2011,09,20,04,02,8.30
2011,09,20,04,03,8.30
2011,09,20,04,04,8.30
2011,09,20,04,05,8.20
2011,09,20,04,06,8.20
2011,09,20,04,07,8.20
2011,09,20,04,08,8.20
2011,09,20,04,09,8.20
2011,09,20,04,10,8.20
2011,09,20,04,11,8.20
2011,09,20,04,12,8.20
2011,09,20,04,13,8.20
2011,09,20,04,14,8.10
2011,09,20,04,15,8.10
2011,09,20,04,16,8.10
2011,09,20,04,17,8.10
2011,09,20,04,18,8.10
2011,09,20,04,19,8.10
2011,09,20,04,20,8.10
2011,09,20,04,21,8.10
2011,09,20,04,22,8.10
2011,09,20,04,23,8.10
2011,09,20,04,24,8.00
2011,09,20,04,25,8.10
2011,09,20,04,26,8.00
2011,09,20,04,27,8.00
2011,09,20,04,28,8.00
2011,09,20,04,29,8.00
2011,09,20,04,30,8.00
2011,09,20,04,31,8.00
2011,09,20,04,32,8.00
2011,09,20,04,33,8.00
2011,09,20,04,34,8.00
2011,09,20,04,35,7.90
2011,09,20,04,36,7.90
2011,09,20,04,37,7.90
2011,09,20,04,38,7.90
2011,09,20,04,39,7.90
2011,09,20,04,40,7.90
2011,09,20,04,41,7.90
2011,09,20,04,42,7.90
2011,09,20,04,43,7.90
2011,09,20,04,44,7.90
2011,09,20,04,45,7.90
2011,09,20,04,46,7.90
2011,09,20,04,47,7.90
2011,09,20,04,48,7.90
2011,09,20,04,49,7.90
2011,09,20,04,50,7.90
2011,09,20,04,51,7.90
2011,09,20,04,52,7.90
2011,09,20,04,53,7.80
2011,09,20,04,54,7.80
2011,09,20,04,55,7.80
2011,09,20,04,56,7.80
2011,09,20,04,57,7.80
2011,09,20,04,58,7.80
2011,09,20,04,59,7.80
2011,09,20,05,00,7.80
2011,09,20,05,01,7.80
2011,09,20,05,02,7.80
2011,09,20,05,03,7.80
2011,09,20,05,04,7.80
2011,09,20,05,05,7.80
2011,09,20,05,06,7.80
2011,09,20,05,07,7.80
2011,09,20,05,08,7.80
2011,09,20,05,09,7.80
2011,09,20,05,10,7.80
2011,09,20,05,11,7.90
2011,09,20,05,12,7.90
2011,09,20,05,13,7.90
2011,09,20,05,14,7.90
2011,09,20,05,15,7.90
2011,09,20,05,16,7.90
2011,09,20,05,17,7.90
2011,09,20,05,18,7.90
2011,09,20,05,19,7.90
2011,09,20,05,20,7.90
2011,09,20,05,21,7.90
2011,09,20,05,22,7.90
2011,09,20,05,23,7.90
2011,09,20,05,24,7.90
2011,09,20,05,25,7.90
2011,09,20,05,26,7.80
2011,09,20,05,27,7.80
2011,09,20,05,28,7.80
2011,09,20,05,29,7.80
2011,09,20,05,30,7.80
2011,09,20,05,31,7.80
2011,09,20,05,32,7.80
2011,09,20,05,33,7.80
2011,09,20,05,34,7.80
2011,09,20,05,35,7.80
2011,09,20,05,36,7.80
2011,09,20,05,37,7.80
2011,09,20,05,38,7.80
2011,09,20,05,39,7.80
2011,09,20,05,40,7.80
2011,09,20,05,41,7.70
2011,09,20,05,42,7.70
2011,09,20,05,43,7.70
2011,09,20,05,44,7.70
2011,09,20,05,45,7.70
2011,09,20,05,46,7.70
2011,09,20,05,47,7.70
2011,09,20,05,48,7.70
2011,09,20,05,49,7.70
2011,09,20,05,50,7.70
2011,09,20,05,51,7.60
2011,09,20,05,52,7.60
2011,09,20,05,53,7.60
2011,09,20,05,54,7.60
2011,09,20,05,55,7.60
2011,09,20,05,56,7.60
2011,09,20,05,57,7.60
2011,09,20,05,58,7.60
2011,09,20,05,59,7.60
2011,09,20,06,00,7.60
2011,09,20,06,01,7.60
2011,09,20,06,02,7.50
2011,09,20,06,03,7.50
2011,09,20,06,04,7.50
2011,09,20,06,05,7.50
2011,09,20,06,06,7.50
2011,09,20,06,07,7.50
2011,09,20,06,08,7.50
2011,09,20,06,09,7.50
2011,09,20,06,10,7.50
2011,09,20,06,11,7.50
2011,09,20,06,12,7.50
2011,09,20,06,13,7.50
2011,09,20,06,14,7.50
2011,09,20,06,15,7.50
2011,09,20,06,16,7.50
2011,09,20,06,17,7.50
2011,09,20,06,18,7.50
2011,09,20,06,19,7.50
2011,09,20,06,20,7.50
2011,09,20,06,21,7.50
2011,09,20,06,22,7.50
2011,09,20,06,23,7.50
2011,09,20,06,24,7.50
2011,09,20,06,25,7.50
2011,09,20,06,26,7.50
2011,09,20,06,27,7.50
2011,09,20,06,28,7.60
2011,09,20,06,29,7.60
2011,09,20,06,30,7.60
2011,09,20,06,31,7.60
2011,09,20,06,32,7.60
2011,09,20,06,33,7.60
2011,09,20,06,34,7.60
2011,09,20,06,35,7.60
2011,09,20,06,36,7.70
2011,09,20,06,37,7.70
2011,09,20,06,38,7.70
2011,09,20,06,39,7.70
2011,09,20,06,40,7.70
2011,09,20,06,41,7.70
2011,09,20,06,42,7.70
2011,09,20,06,43,7.70
2011,09,20,06,44,7.70
2011,09,20,06,45,7.70
2011,09,20,06,46,7.70
2011,09,20,06,47,7.70
2011,09,20,06,48,7.70
2011,09,20,06,49,7.60
2011,09,20,06,50,7.60
2011,09,20,06,51,7.60
2011,09,20,06,52,7.60
2011,09,20,06,53,7.60
2011,09,20,06,54,7.60
2011,09,20,06,55,7.60
2011,09,20,06,56,7.60
2011,09,20,06,57,7.60
2011,09,20,06,58,7.60
2011,09,20,06,59,7.60
2011,09,20,07,00,7.60
2011,09,20,07,01,7.60
2011,09,20,07,02,7.60
2011,09,20,07,03,7.60
2011,09,20,07,04,7.60
2011,09,20,07,05,7.60
2011,09,20,07,06,7.60
2011,09,20,07,07,7.60
2011,09,20,07,08,7.60
2011,09,20,07,09,7.60
2011,09,20,07,10,7.60
2011,09,20,07,11,7.60
2011,09,20,07,12,7.60
2011,09,20,07,13,7.60
2011,09,20,07,14,7.60
2011,09,20,07,15,7.60
2011,09,20,07,16,7.60
2011,09,20,07,17,7.60
2011,09,20,07,18,7.60
2011,09,20,07,19,7.50
2011,09,20,07,20,7.60
2011,09,20,07,21,7.60
2011,09,20,07,22,7.50
2011,09,20,07,23,7.50
2011,09,20,07,24,7.50
2011,09,20,07,25,7.60
2011,09,20,07,26,7.50
2011,09,20,07,27,7.60
2011,09,20,07,28,7.60
2011,09,20,07,29,7.60
2011,09,20,07,30,7.60
2011,09,20,07,31,7.60
2011,09,20,07,32,7.60
2011,09,20,07,33,7.60
2011,09,20,07,34,7.60
2011,09,20,07,35,7.60
2011,09,20,07,36,7.60
2011,09,20,07,37,7.60
2011,09,20,07,38,7.60
2011,09,20,07,39,7.60
2011,09,20,07,40,7.60
2011,09,20,07,41,7.60
2011,09,20,07,42,7.60
2011,09,20,07,43,7.60
2011,09,20,07,44,7.70
2011,09,20,07,45,7.70
2011,09,20,07,46,7.70
2011,09,20,07,47,7.70
2011,09,20,07,48,7.70
2011,09,20,07,49,7.70
2011,09,20,07,50,7.80
2011,09,20,07,51,7.80
2011,09,20,07,52,7.80
2011,09,20,07,53,7.90
2011,09,20,07,54,7.90
2011,09,20,07,55,8.00
2011,09,20,07,56,8.00
2011,09,20,07,57,8.00
2011,09,20,07,58,8.10
2011,09,20,07,59,8.10
2011,09,20,08,00,8.20
2011,09,20,08,01,8.20
2011,09,20,08,02,8.30
2011,09,20,08,03,8.30
2011,09,20,08,04,8.30
2011,09,20,08,05,8.40
2011,09,20,08,06,8.50
2011,09,20,08,07,8.50
2011,09,20,08,08,8.60
2011,09,20,08,09,8.70
2011,09,20,08,10,8.80
2011,09,20,08,11,8.80
2011,09,20,08,12,8.90
2011,09,20,08,13,9.00
2011,09,20,08,14,9.10
2011,09,20,08,15,9.10
2011,09,20,08,16,9.20
2011,09,20,08,17,9.30
2011,09,20,08,18,9.30
2011,09,20,08,19,9.40
2011,09,20,08,20,9.40
2011,09,20,08,21,9.50
2011,09,20,08,22,9.50
2011,09,20,08,23,9.60
2011,09,20,08,24,9.70
2011,09,20,08,25,9.80
2011,09,20,08,26,9.90
2011,09,20,08,27,10.00
2011,09,20,08,28,10.00
2011,09,20,08,29,10.10
2011,09,20,08,30,10.10
2011,09,20,08,31,10.20
2011,09,20,08,32,10.20
2011,09,20,08,33,10.20
2011,09,20,08,34,10.20
2011,09,20,08,35,10.20
2011,09,20,08,36,10.30
2011,09,20,08,37,10.30
2011,09,20,08,38,10.30
2011,09,20,08,39,10.30
2011,09,20,08,40,10.30
2011,09,20,08,41,10.40
2011,09,20,08,42,10.40
2011,09,20,08,43,10.40
2011,09,20,08,44,10.40
2011,09,20,08,45,10.40
2011,09,20,08,46,10.50
2011,09,20,08,47,10.50
2011,09,20,08,48,10.60
2011,09,20,08,49,10.60
2011,09,20,08,50,10.60
2011,09,20,08,51,10.70
2011,09,20,08,52,10.70
2011,09,20,08,53,10.70
2011,09,20,08,54,10.70
2011,09,20,08,55,10.80
2011,09,20,08,56,10.80
2011,09,20,08,57,10.90
2011,09,20,08,58,10.90
2011,09,20,08,59,10.90
2011,09,20,09,00,11.00
2011,09,20,09,01,11.00
2011,09,20,09,02,11.10
2011,09,20,09,03,11.10
2011,09,20,09,04,11.10
2011,09,20,09,05,11.20
2011,09,20,09,06,11.20
2011,09,20,09,07,11.20
2011,09,20,09,08,11.20
2011,09,20,09,09,11.30
2011,09,20,09,10,11.30
2011,09,20,09,11,11.30
2011,09,20,09,12,11.40
2011,09,20,09,13,11.40
2011,09,20,09,14,11.50
2011,09,20,09,15,11.50
2011,09,20,09,16,11.60
2011,09,20,09,17,11.60
2011,09,20,09,18,11.60
2011,09,20,09,19,11.70
2011,09,20,09,20,11.70
2011,09,20,09,21,11.70
2011,09,20,09,22,11.70
2011,09,20,09,23,11.80
2011,09,20,09,24,11.80
2011,09,20,09,25,11.90
2011,09,20,09,26,12.00
2011,09,20,09,27,12.00
2011,09,20,09,28,12.10
2011,09,20,09,29,12.20
2011,09,20,09,30,12.30
2011,09,20,09,31,12.50
2011,09,20,09,32,12.60
2011,09,20,09,33,12.70
2011,09,20,09,34,12.90
2011,09,20,09,35,13.00
2011,09,20,09,36,13.20
2011,09,20,09,37,13.30
2011,09,20,09,38,13.40
2011,09,20,09,39,13.50
2011,09,20,09,40,13.50
2011,09,20,09,41,13.60
2011,09,20,09,42,13.60
2011,09,20,09,43,13.60
2011,09,20,09,44,13.60
2011,09,20,09,45,13.70
2011,09,20,09,46,13.60
2011,09,20,09,47,13.60
2011,09,20,09,48,13.60
2011,09,20,09,49,13.60
2011,09,20,09,50,13.60
2011,09,20,09,51,13.60
2011,09,20,09,52,13.60
2011,09,20,09,53,13.60
2011,09,20,09,54,13.70
2011,09,20,09,55,13.70
2011,09,20,09,56,13.70
2011,09,20,09,57,13.80
2011,09,20,09,58,13.80
2011,09,20,09,59,13.80
2011,09,20,10,00,13.90
2011,09,20,10,01,13.90
2011,09,20,10,02,14.00
2011,09,20,10,03,14.10
2011,09,20,10,04,14.20
2011,09,20,10,05,14.30
2011,09,20,10,06,14.40
2011,09,20,10,07,14.50
2011,09,20,10,08,14.60
2011,09,20,10,09,14.70
2011,09,20,10,10,14.80
2011,09,20,10,11,14.90
2011,09,20,10,12,15.10
2011,09,20,10,13,15.10
2011,09,20,10,14,15.30
2011,09,20,10,15,15.40
2011,09,20,10,16,15.50
2011,09,20,10,17,15.50
2011,09,20,10,18,15.60
2011,09,20,10,19,15.70
2011,09,20,10,20,15.70
2011,09,20,10,21,15.80
2011,09,20,10,22,15.80
2011,09,20,10,23,15.80
2011,09,20,10,24,15.80
2011,09,20,10,25,15.90
2011,09,20,10,26,15.90
2011,09,20,10,27,15.80
2011,09,20,10,28,15.70
2011,09,20,10,29,15.70
2011,09,20,10,30,15.80
2011,09,20,10,31,15.80
2011,09,20,10,32,15.80
2011,09,20,10,33,15.90
2011,09,20,10,34,15.90
2011,09,20,10,35,15.90
2011,09,20,10,36,16.00
2011,09,20,10,37,16.00
2011,09,20,10,38,16.00
2011,09,20,10,39,16.10
2011,09,20,10,40,16.10
2011,09,20,10,41,16.20
2011,09,20,10,42,16.20
2011,09,20,10,43,16.30
2011,09,20,10,44,16.40
2011,09,20,10,45,16.50
2011,09,20,10,46,16.60
2011,09,20,10,47,16.70
2011,09,20,10,48,16.80
2011,09,20,10,49,16.90
2011,09,20,10,50,17.00
2011,09,20,10,51,17.20
2011,09,20,10,52,17.30
2011,09,20,10,53,17.40
2011,09,20,10,54,17.50
2011,09,20,10,55,17.50
2011,09,20,10,56,17.60
2011,09,20,10,57,17.60
2011,09,20,10,58,17.60
2011,09,20,10,59,17.70
2011,09,20,11,00,17.70
2011,09,20,11,01,17.70
2011,09,20,11,02,17.70
2011,09,20,11,03,17.80
2011,09,20,11,04,17.80
2011,09,20,11,05,17.90
2011,09,20,11,06,17.90
2011,09,20,11,07,18.00
2011,09,20,11,08,18.10
2011,09,20,11,09,18.10
2011,09,20,11,10,18.10
2011,09,20,11,11,18.20
2011,09,20,11,12,18.20
2011,09,20,11,13,18.20
2011,09,20,11,14,18.20
2011,09,20,11,15,18.20
2011,09,20,11,16,18.20
2011,09,20,11,17,18.20
2011,09,20,11,18,18.20
2011,09,20,11,19,18.20
2011,09,20,11,20,18.20
2011,09,20,11,21,18.20
2011,09,20,11,22,18.30
2011,09,20,11,23,18.30
2011,09,20,11,24,18.30
2011,09,20,11,25,18.40
2011,09,20,11,26,18.40
2011,09,20,11,27,18.50
2011,09,20,11,28,18.50
2011,09,20,11,29,18.50
2011,09,20,11,30,18.50
2011,09,20,11,31,18.50
2011,09,20,11,32,18.60
2011,09,20,11,33,18.60
2011,09,20,11,34,18.60
2011,09,20,11,35,18.60
2011,09,20,11,36,18.50
2011,09,20,11,37,18.60
2011,09,20,11,38,18.50
2011,09,20,11,39,18.50
2011,09,20,11,40,18.40
2011,09,20,11,41,18.50
2011,09,20,11,42,18.50
2011,09,20,11,43,18.60
2011,09,20,11,44,18.70
2011,09,20,11,45,18.70
2011,09,20,11,46,18.80
2011,09,20,11,47,18.80
2011,09,20,11,48,18.90
2011,09,20,11,49,18.90
2011,09,20,11,50,19.00
2011,09,20,11,51,19.10
2011,09,20,11,52,19.10
2011,09,20,11,53,19.10
2011,09,20,11,54,19.00
2011,09,20,11,55,19.00
2011,09,20,11,56,19.00
2011,09,20,11,57,19.00
2011,09,20,11,58,19.10
2011,09,20,11,59,19.10
2011,09,20,12,00,19.10
2011,09,20,12,01,19.10
2011,09,20,12,02,19.10
2011,09,20,12,03,19.10
2011,09,20,12,04,19.20
2011,09,20,12,05,19.10
2011,09,20,12,06,19.10
2011,09,20,12,07,19.10
2011,09,20,12,08,19.10
2011,09,20,12,09,19.10
2011,09,20,12,10,19.10
2011,09,20,12,11,19.10
2011,09,20,12,12,19.10
2011,09,20,12,13,19.10
2011,09,20,12,14,19.10
2011,09,20,12,15,19.10
2011,09,20,12,16,19.10
2011,09,20,12,17,19.20
2011,09,20,12,18,19.30
2011,09,20,12,19,19.40
2011,09,20,12,20,19.40
2011,09,20,12,21,19.60
2011,09,20,12,22,19.70
2011,09,20,12,23,19.70
2011,09,20,12,24,19.80
2011,09,20,12,25,19.80
2011,09,20,12,26,19.80
2011,09,20,12,27,19.90
2011,09,20,12,28,19.90
2011,09,20,12,29,19.90
2011,09,20,12,30,19.80
2011,09,20,12,31,19.80
2011,09,20,12,32,19.80
2011,09,20,12,33,19.70
2011,09,20,12,34,19.70
2011,09,20,12,35,19.60
2011,09,20,12,36,19.60
2011,09,20,12,37,19.60
2011,09,20,12,38,19.60
2011,09,20,12,39,19.60
2011,09,20,12,40,19.60
2011,09,20,12,41,19.60
2011,09,20,12,42,19.70
2011,09,20,12,43,19.80
2011,09,20,12,44,19.80
2011,09,20,12,45,19.90
2011,09,20,12,46,19.90
2011,09,20,12,47,19.90
2011,09,20,12,48,19.90
2011,09,20,12,49,20.00
2011,09,20,12,50,20.00
2011,09,20,12,51,20.10
2011,09,20,12,52,20.20
2011,09,20,12,53,20.30
2011,09,20,12,54,20.30
2011,09,20,12,55,20.30
2011,09,20,12,56,20.30
2011,09,20,12,57,20.20
2011,09,20,12,58,20.20
2011,09,20,12,59,20.20
2011,09,20,13,00,20.20
2011,09,20,13,01,20.10
2011,09,20,13,02,20.10
2011,09,20,13,03,20.00
2011,09,20,13,04,19.90
2011,09,20,13,05,19.90
2011,09,20,13,06,19.80
2011,09,20,13,07,19.70
2011,09,20,13,08,19.50
2011,09,20,13,09,19.40
2011,09,20,13,10,19.30
2011,09,20,13,11,19.30
2011,09,20,13,12,19.40
2011,09,20,13,13,19.40
2011,09,20,13,14,19.40
2011,09,20,13,15,19.50
2011,09,20,13,16,19.50
2011,09,20,13,17,19.60
2011,09,20,13,18,19.70
2011,09,20,13,19,19.80
2011,09,20,13,20,19.90
2011,09,20,13,21,20.00
2011,09,20,13,22,20.10
2011,09,20,13,23,20.10
2011,09,20,13,24,20.20
2011,09,20,13,25,20.20
2011,09,20,13,26,20.20
2011,09,20,13,27,20.20
2011,09,20,13,28,20.20
2011,09,20,13,29,20.20
2011,09,20,13,30,20.20
2011,09,20,13,31,20.20
2011,09,20,13,32,20.20
2011,09,20,13,33,20.10
2011,09,20,13,34,20.10
2011,09,20,13,35,20.10
2011,09,20,13,36,20.10
2011,09,20,13,37,20.10
2011,09,20,13,38,20.00
2011,09,20,13,39,20.00
2011,09,20,13,40,19.90
2011,09,20,13,41,19.90
2011,09,20,13,42,19.90
2011,09,20,13,43,20.00
2011,09,20,13,44,20.00
2011,09,20,13,45,20.00
2011,09,20,13,46,20.00
2011,09,20,13,47,20.00
2011,09,20,13,48,20.10
2011,09,20,13,49,20.10
2011,09,20,13,50,20.10
2011,09,20,13,51,20.20
2011,09,20,13,52,20.20
2011,09,20,13,53,20.20
2011,09,20,13,54,20.30
2011,09,20,13,55,20.30
2011,09,20,13,56,20.40
2011,09,20,13,57,20.40
2011,09,20,13,58,20.40
2011,09,20,13,59,20.40
2011,09,20,14,00,20.50
2011,09,20,14,01,20.50
2011,09,20,14,02,20.50
2011,09,20,14,03,20.50
2011,09,20,14,04,20.40
2011,09,20,14,05,20.50
2011,09,20,14,06,20.50
2011,09,20,14,07,20.50
2011,09,20,14,08,20.60
2011,09,20,14,09,20.60
2011,09,20,14,10,20.60
2011,09,20,14,11,20.60
2011,09,20,14,12,20.70
2011,09,20,14,13,20.70
2011,09,20,14,14,20.70
2011,09,20,14,15,20.70
2011,09,20,14,16,20.70
2011,09,20,14,17,20.70
2011,09,20,14,18,20.70
2011,09,20,14,19,20.60
2011,09,20,14,20,20.60
2011,09,20,14,21,20.50
2011,09,20,14,22,20.50
2011,09,20,14,23,20.60
2011,09,20,14,24,20.60
2011,09,20,14,25,20.60
2011,09,20,14,26,20.70
2011,09,20,14,27,20.70
2011,09,20,14,28,20.70
2011,09,20,14,29,20.70
2011,09,20,14,30,20.60
2011,09,20,14,31,20.60
2011,09,20,14,32,20.60
2011,09,20,14,33,20.60
2011,09,20,14,34,20.50
2011,09,20,14,35,20.50
2011,09,20,14,36,20.50
2011,09,20,14,37,20.40
2011,09,20,14,38,20.40
2011,09,20,14,39,20.50
2011,09,20,14,40,20.50
2011,09,20,14,41,20.50
2011,09,20,14,42,20.60
2011,09,20,14,43,20.60
2011,09,20,14,44,20.60
2011,09,20,14,45,20.70
2011,09,20,14,46,20.70
2011,09,20,14,47,20.70
2011,09,20,14,48,20.70
2011,09,20,14,49,20.80
2011,09,20,14,50,20.80
2011,09,20,14,51,20.80
2011,09,20,14,52,20.80
2011,09,20,14,53,20.70
2011,09,20,14,54,20.80
2011,09,20,14,55,20.80
2011,09,20,14,56,20.70
2011,09,20,14,57,20.70
2011,09,20,14,58,20.70
2011,09,20,14,59,20.70
2011,09,20,15,00,20.70
2011,09,20,15,01,20.60
2011,09,20,15,02,20.60
2011,09,20,15,03,20.60
2011,09,20,15,04,20.50
2011,09,20,15,05,20.50
2011,09,20,15,06,20.40
2011,09,20,15,07,20.30
2011,09,20,15,08,20.30
2011,09,20,15,09,20.30
2011,09,20,15,10,20.30
2011,09,20,15,11,20.30
2011,09,20,15,12,20.30
2011,09,20,15,13,20.30
2011,09,20,15,14,20.30
2011,09,20,15,15,20.30
2011,09,20,15,16,20.40
2011,09,20,15,17,20.40
2011,09,20,15,18,20.50
2011,09,20,15,19,20.50
2011,09,20,15,20,20.50
2011,09,20,15,21,20.50
2011,09,20,15,22,20.50
2011,09,20,15,23,20.60
2011,09,20,15,24,20.50
2011,09,20,15,25,20.50
2011,09,20,15,26,20.50
2011,09,20,15,27,20.40
2011,09,20,15,28,20.40
2011,09,20,15,29,20.40
2011,09,20,15,30,20.40
2011,09,20,15,31,20.30
2011,09,20,15,32,20.20
2011,09,20,15,33,20.10
2011,09,20,15,34,20.10
2011,09,20,15,35,20.00
2011,09,20,15,36,19.90
2011,09,20,15,37,19.90
2011,09,20,15,38,19.80
2011,09,20,15,39,19.70
2011,09,20,15,40,19.70
2011,09,20,15,41,19.60
2011,09,20,15,42,19.60
2011,09,20,15,43,19.60
2011,09,20,15,44,19.50
2011,09,20,15,45,19.50
2011,09,20,15,46,19.50
2011,09,20,15,47,19.50
2011,09,20,15,48,19.40
2011,09,20,15,49,19.40
2011,09,20,15,50,19.40
2011,09,20,15,51,19.40
2011,09,20,15,52,19.40
2011,09,20,15,53,19.40
2011,09,20,15,54,19.30
2011,09,20,15,55,19.30
2011,09,20,15,56,19.30
2011,09,20,15,57,19.30
2011,09,20,15,58,19.40
2011,09,20,15,59,19.40
2011,09,20,16,00,19.40
2011,09,20,16,01,19.40
2011,09,20,16,02,19.40
2011,09,20,16,03,19.40
2011,09,20,16,04,19.40
2011,09,20,16,05,19.30
2011,09,20,16,06,19.30
2011,09,20,16,07,19.30
2011,09,20,16,08,19.20
2011,09,20,16,09,19.20
2011,09,20,16,10,19.10
2011,09,20,16,11,19.10
2011,09,20,16,12,19.10
2011,09,20,16,13,19.00
2011,09,20,16,14,19.00
2011,09,20,16,15,18.90
2011,09,20,16,16,18.90
2011,09,20,16,17,18.90
2011,09,20,16,18,18.80
2011,09,20,16,19,18.80
2011,09,20,16,20,18.80
2011,09,20,16,21,18.80
2011,09,20,16,22,18.80
2011,09,20,16,23,18.80
2011,09,20,16,24,18.80
2011,09,20,16,25,18.80
2011,09,20,16,26,18.70
2011,09,20,16,27,18.70
2011,09,20,16,28,18.70
2011,09,20,16,29,18.80
2011,09,20,16,30,18.80
2011,09,20,16,31,18.80
2011,09,20,16,32,18.80
2011,09,20,16,33,18.80
2011,09,20,16,34,18.80
2011,09,20,16,35,18.80
2011,09,20,16,36,18.80
2011,09,20,16,37,18.80
2011,09,20,16,38,18.80
2011,09,20,16,39,18.80
2011,09,20,16,40,18.80
2011,09,20,16,41,18.80
2011,09,20,16,42,18.70
2011,09,20,16,43,18.70
2011,09,20,16,44,18.70
2011,09,20,16,45,18.70
2011,09,20,16,46,18.70
2011,09,20,16,47,18.70
2011,09,20,16,48,18.70
2011,09,20,16,49,18.70
2011,09,20,16,50,18.70
2011,09,20,16,51,18.70
2011,09,20,16,52,18.70
2011,09,20,16,53,18.70
2011,09,20,16,54,18.70
2011,09,20,16,55,18.70
2011,09,20,16,56,18.70
2011,09,20,16,57,18.70
2011,09,20,16,58,18.70
2011,09,20,16,59,18.70
2011,09,20,17,00,18.70
2011,09,20,17,01,18.70
2011,09,20,17,02,18.70
2011,09,20,17,03,18.70
2011,09,20,17,04,18.70
2011,09,20,17,05,18.70
2011,09,20,17,06,18.70
2011,09,20,17,07,18.70
2011,09,20,17,08,18.70
2011,09,20,17,09,18.70
2011,09,20,17,10,18.80
2011,09,20,17,11,18.80
2011,09,20,17,12,18.80
2011,09,20,17,13,18.80
2011,09,20,17,14,18.80
2011,09,20,17,15,18.80
2011,09,20,17,16,18.80
2011,09,20,17,17,18.80
2011,09,20,17,18,18.80
2011,09,20,17,19,18.90
2011,09,20,17,20,18.90
2011,09,20,17,21,18.90
2011,09,20,17,22,18.90
2011,09,20,17,23,19.00
2011,09,20,17,24,19.00
2011,09,20,17,25,19.10
2011,09,20,17,26,19.10
2011,09,20,17,27,19.10
2011,09,20,17,28,19.10
2011,09,20,17,29,19.10
2011,09,20,17,30,19.10
2011,09,20,17,31,19.10
2011,09,20,17,32,19.20
2011,09,20,17,33,19.20
2011,09,20,17,34,19.20
2011,09,20,17,35,19.10
2011,09,20,17,36,19.10
2011,09,20,17,37,19.10
2011,09,20,17,38,19.10
2011,09,20,17,39,19.10
2011,09,20,17,40,19.00
2011,09,20,17,41,19.00
2011,09,20,17,42,18.90
2011,09,20,17,43,18.90